STARLINK-37734, 69305

Orbit data source: Space-Track

STARLINK-37734, 69305 is a payload satellite owned by SpaceX/Seattle (US) in SSO that was launched on Sat, 30 May 2026 UTC via an FALCON 9 launch vehicle from the Air Force Western Test Range (AFWTR). Payload-class satellites include a variety of spacecraft equipped with specific instruments for various scientific and technological missions. These include communications satellites like Starlink; space stations such as the ISS; scientific satellites like the Hubble; Earth observation satellites from companies like Planet Labs, Umbra, and HawkEye 360; GPS; miniature CubeSats for education and research; and military/defense satellites.

Loading next visibility...
Identifier
69305, 2026-119K
Orbit
SSO
Country
Flag of USUS
Related business
Manufacturer
SpaceX/Seattle
Mission
Operational Commercial Communications
Bus & Motor
STARLINK V2MO, Unknown motor
Mass
575 kg wet, ~530 kg dry
Launch date (UTC)
2026-05-30 (4 months ago)
Launch vehicle
FALCON 9
Launch site
Air Force Western Test Range (AFWTR)
Object type
Payload
Rocket body
Debris
Shape & HBR
Box + 1 Pan, 17.7 m
Radar Cross Section
41.120 m², Large (>1 m²)

Expand to show TLE details & history
Last TLE update: 10 hours ago

TLE from 10 hours ago
0 STARLINK-37734
1 69305U 26119K   26263.83235848  .00016268  00000-0  50519-3 0  9998
2 69305  97.2832 288.5549 0001037  97.0376 263.0985 15.33441298 18710
Epoch: 2026-09-20T19:58Z
TLE epoch observation values (Epoch: 2026-09-20T19:58:35.772Z)
Latitude
-0.00001°
Longitude
-10.81503°
Altitude
468.752 km
Speed
7.632 km/s
True Right ascension
19h 14m 13s
True Declination
0° 00' 00"
Sunlit
Object was in daylight at epoch
Visualization orbit readout
Latitude
Unknown
Longitude
Unknown
Altitude
Unknown
Speed
Unknown
Apparent Right ascension
Unknown
Apparent Declination
Unknown
Sunlit
N/A
Visualization observer readout
Local Sidereal Time
23:11:33
Azimuth
Unknown
Elevation
Unknown
Doppler factor
Unknown
Orbital elements
Apogee altitude
463.206 km
Perigee altitude
461.788 km
Semi-major axis
6,840.634 km
Eccentricity
0.0001
Inclination
97.2832°
RAAN
288.5549°
Arg. of periapsis
97.0376°
True anomaly
263.0867°
Mean anomaly
263.0985°
Eccentric anomaly
263.0926°
Mean motion
3.83618 °/min
Orbital period
93.84 mins
BSTAR
0.00050519
Loading maneuver chart data...
Computing Atmospheric mass density...
Loading historical data...
Loading historical data...
Loading historical data...
Loading historical data...
Loading historical data...
Loading historical data...
Loading historical data...

Documentation

Showing up to 5 results
|